AirNav   Everest Fuels
 
 1457 users online  

4N1 Greenwood Lake Airport
West Milford, New Jersey, USA

GOING TO WEST MILFORD?


FAA INFORMATION EFFECTIVE 16 JULY 2020

Location

FAA Identifier: 4N1
Lat/Long: 41-07-42.2000N 074-20-47.5000W
41-07.703333N 074-20.791667W
41.1283889,-74.3465278
(estimated)
Elevation: 789.6 ft. / 240.7 m (surveyed)
Variation: 13W (1995)
From city: 1 mile E of WEST MILFORD, NJ
Time zone: UTC -4 (UTC -5 during Standard Time)
Zip code: 07480

Airport Operations

Airport use: Open to the public
Activation date: 06/1960
Control tower: no
ARTCC: NEW YORK CENTER
FSS: MILLVILLE FLIGHT SERVICE STATION
NOTAMs facility: MIV (NOTAM-D service available)
Attendance: 0800-1700
Wind indicator: lighted
Segmented circle: no
Lights: ACTVT MIRL RY 06/24 - CTAF.
Beacon: white-green (lighted land airport)
Operates sunset to sunrise.

Airport Communications

CTAF: 122.9
NEW YORK APPROACH: 127.6
NEW YORK DEPARTURE: 127.6
WX ASOS at FWN (13 nm W): 118.525 (973-875-0859)
WX ASOS at CDW (15 nm S): 135.5 (973-575-4417)
WX ASOS at 12N (19 nm W): PHONE 917-786-7221
WX AWOS-3 at MMU (20 nm S): PHONE 973-290-0135

Nearby radio navigation aids

VOR radial/distance  VOR name  Freq  Var
SAXr078/9.4SPARTA VORTAC115.7011W
HUOr158/20.2HUGUENOT VOR/DME116.1011W
TEBr334/21.2TETERBORO VOR/DME108.4011W
STWr082/24.9STILLWATER VOR/DME109.6011W
BWZr058/29.3BROADWAY VOR/DME114.2011W
LGAr326/29.9LA GUARDIA VOR/DME113.1012W
CMKr267/35.7CARMEL VOR/DME116.6012W
CRIr337/37.1CANARSIE VOR/DME112.3011W
SBJr039/37.3SOLBERG VOR/DME112.9010W
JFKr331/39.6KENNEDY VOR/DME115.9012W
IGNr228/39.9KINGSTON VOR/DME117.6012W

 
NDB name  Hdg/Dist  Freq  Var  ID
CHATHAM022/23.625413WCAT -.-. .- -
STANWYCK222/27.626112WSKU ... -.- ..-

Airport Services

Fuel available: 100LL JET-A
Parking: tiedowns
Airframe service: MAJOR
Powerplant service: MAJOR
Bottled oxygen: NONE
Bulk oxygen: NONE

Runway Information

Runway 6/24

Dimensions: 3471 x 60 ft. / 1058 x 18 m
Surface: asphalt, in fair condition
Runway edge lights: medium intensity
RUNWAY 6  RUNWAY 24
Latitude: 41-07.510958N41-07.894688N
Longitude: 074-21.072025W074-20.511670W
Elevation: 789.3 ft.789.4 ft.
Traffic pattern: rightleft
Runway heading: 061 magnetic, 048 true241 magnetic, 228 true
Markings: nonprecision, in good conditionnonprecision, in good condition
Visual slope indicator: 2-light PAPI on left (3.50 degrees glide path)
PAPI OPERATES CONTINUOUSLY.
Runway end identifier lights: nono
Touchdown point: yes, no lightsyes, no lights
Obstructions: 192 ft. trees, 1988 ft. from runway, 170 ft. right of centerline, 9:1 slope to clear
TREES BELOW RWY END, CLIFF.
23 ft. tree, 680 ft. from runway, 132 ft. left of centerline, 20:1 slope to clear

Airport Ownership and Management from official FAA records

Ownership: Publicly-owned
Owner: N.J. DEPT. TRANSPORTATION
1035 PARKWAY AVE. P.O. BOX 610, PO BOX 600
TRENTON, NJ 08625
Phone 609-530-2900
Manager: TIM WAGNER
126A AIRPORT RD BOX 1
WEST MILFORD, NJ 07480
Phone 973-728-7721

Airport Operational Statistics

Aircraft based on the field: 40
Single engine airplanes: 39
Multi engine airplanes: 1
    
Aircraft operations: avg 42/day *
74% local general aviation
26% transient general aviation
* for 12-month period ending 28 February 2019

Additional Remarks

RY 06/24 STEEP ROCK LEDGES LCTD JUST BYD BOTH RY ENDS.
ARPT SUBJECT TO GUSTING WIND & FREQUENT CROSSWINDS.
SOME RY AND TY LGTS TALLER THAN STANDARD.
GCO AVBL ON FREQ 121.725.
DEER AND BIRDS ON AND INVOF ARPT.
FOR CD IF UNA ON GCO, CTC NEW YORK APCH AT 800-645-3206.

Instrument Procedures

NOTE: All procedures below are presented as PDF files. If you need a reader for these files, you should download the free Adobe Reader.

NOT FOR NAVIGATION. Please procure official charts for flight.
FAA instrument procedures published for use from 16 July 2020 at 0901Z to 13 August 2020 at 0900Z.

 
IAPs - Instrument Approach Procedures
RNAV (GPS) RWY 06 **CHANGED**   download (213KB)
RNAV (GPS) RWY 24 **CHANGED**   download (225KB)
NOTE: Special Take-Off Minimums/Departure Procedures apply   download (150KB)

Other nearby airports with instrument procedures:

N07 - Lincoln Park Airport (11 nm S)
KFWN - Sussex Airport (13 nm W)
KCDW - Essex County Airport (15 nm S)
06N - Randall Airport (18 nm N)
12N - Aeroflex-Andover Airport (19 nm W)
KMMU - Morristown Municipal Airport (20 nm S)
 
Loc | Ops | Rwys | IFR | FBO | Links
Com | Nav | Svcs | Stats | Notes
Area around 4N1 (Greenwood Lake Airport)
 
Road maps at: MapQuest Bing Google
 
Aerial photo
WARNING: Photo may not be current or correct
Aerial photo of 4N1 (Greenwood Lake Airport)
Photo by Wendy Silcox McPherson
Photo taken 17-Nov-2012
looking south.

Do you have a better or more recent aerial photo of Greenwood Lake Airport that you would like to share? If so, please send us your photo.

 
Sectional chart

 
Airport distance calculator
Flying to Greenwood Lake Airport? Find the distance to fly.

From to 4N1

Sunrise and sunset
Times for 04-Aug-2020
 Local
(UTC-4)
 Zulu
(UTC)
Morning civil twilight05:2709:27
Sunrise05:5809:58
Sunset20:0900:09
Evening civil twilight20:3900:39

Current date and time
Zulu (UTC)  04-Aug-2020 21:16:20
Local (UTC-4)  04-Aug-2020 17:16:20
 
METAR
KFWN 
14nm W 
041724Z AUTO 10012G21KT 1SM +RA BR FEW009 BKN017 OVC022 24/22 A2949 RMK AO2 PRESFR P0073 T02390217
KCDW 
15nm S 
042053Z 24013G26KT 200V300 10SM FEW042 SCT120 27/19 A2969 RMK AO2 PK WND 30035/2000 RAE02 SLP057 P0000 60002 T02670189 53080
K12N 
19nm W 
042054Z AUTO 21007G20KT 130V300 24/19 A2972 RMK AO1 SLP056 60010 T02440189 53084
KTEB 
21nm SE 
042051Z 23022G33KT 10SM SCT017 BKN023 26/18 A2967 RMK AO2 PK WND 29046/2002 WSHFT 1943 SLP045 60001 T02560183 53077
KMMU 
21nm S 
042055Z 26014G25KT 10SM SCT037 28/23 A2971 RMK PRESRR
KMGJ 
24nm N 
SuperAWOS
042054Z AUTO 27021G39KT 9SM -RA FEW012 BKN025 OVC042 21/18 A2954 RMK AO2 PK WND 26039/2046 WSHFT 2027 RAB12 PRESRR SLP003 P0000 60020 T02060183
KSWF 
25nm NE 
042045Z 24010G20KT 4SM -RA BR BKN008 OVC015 22/22 A2950
KNYC 
27nm SE 
042051Z AUTO 24014G27KT 10SM 25/19 A2972 RMK AO2 PK WND 26040/2005 RAE1957 SLP054 P0000 60001 T02500189 53076 $
TAF
KTEB 
21nm SE 
042001Z 0420/0524 25030G48KT P6SM SCT017 OVC025 WS020/19065KT TEMPO 0420/0421 BKN017 FM042200 24018G30KT P6SM FEW025 OVC040 FM050300 22008KT P6SM FEW040 SCT250 FM050700 26005KT P6SM SCT250 FM051700 23010KT P6SM FEW050 SCT250
KSWF 
25nm NE 
042009Z 0420/0524 16012G20KT 5SM BR BKN008 OVC015 WS020/14055KT TEMPO 0420/0422 5SM -SHRA BR SCT008 OVC015 FM042200 24034G48KT P6SM SCT008 OVC015 WS020/19055KT FM042300 28018G24KT P6SM OVC040 FM050400 28008KT P6SM FEW035 SCT250 FM050700 27005KT P6SM SCT250 FM051700 26010KT P6SM FEW050 SCT250 AMD NOT SKED
NOTAMs
Click for the latest NOTAMs
NOTAMs are issued by the DoD/FAA and will open in a separate window not controlled by AirNav.

 

 
 

FBO, Fuel Providers, and Aircraft Ground Support

  
 Business Name 
 
 Contact 
 
 Services / Description 
 
Fuel Prices
 
Comments
  
Greenwood Lake Airport Management 973-728-7721
[web site]
[email]
Airport management, Aviation fuel, Aircraft ground handling, Aircraft parking (ramp or tiedown), Hangars, Hangar leasing / sales, Passenger terminal and lounge, ...

More info about Greenwood Lake Airport Management
Phillips 66
100LL Jet A
FS $4.79 $5.49 
SS $4.49 $5.49 
 Updated 27-Jul-2020
  no comments
FS=Full service
SS=Self service
Update Fuel Prices
 

Would you like to see your business listed on this page?

 If your business provides an interesting product or service to pilots, flight crews, aircraft, or users of the Greenwood Lake Airport, you should consider listing it here.  To start the listing process, click on the button below
 
Add a business
 

Other Pages about Greenwood Lake Airport

Update a link
 
Copyright © AirNav, LLC. All rights reserved. Privacy Policy  Contact